Location: Chicago
(41.8500°N, 87.6500°W)
Time: 16:07:45
(UTC-06:00)

ISS - Visible Passes

Search period start: 18 January 2017 00:00
Search period end: 28 January 2017 00:00
Orbit: 400 x 410 km, 51.6° (Epoch: 19 January)

Date Brightness Start Highest point End Pass type
(mag) Time Alt. Az. Time Alt. Az. Time Alt. Az.
18 Jan -2.8 05:48:45 36° WSW 05:49:29 43° SW 05:52:34 10° SSE visible
19 Jan -1.4 04:58:59 27° SE 04:58:59 27° SE 05:00:38 10° SE visible
20 Jan -1.4 05:41:59 17° SSW 05:41:59 17° SSW 05:43:44 10° S visible
21 Jan -0.2 04:52:23 10° SSE 04:52:23 10° SSE 04:52:23 10° SSE visible
26 Jan -1.0 18:42:21 10° S 18:43:21 15° S 18:43:21 15° S visible
27 Jan -1.0 17:51:59 10° SE 17:52:48 11° SE 17:53:38 10° ESE visible
27 Jan -0.6 19:25:32 10° SW 19:26:25 17° SW 19:26:25 17° SW visible
